FW3809 Weather Reports


Display with metric or nautical units.
time (UTC)temp
F
wind
direction
speed
MPH
gust
MPH
rain 1hr
in
rain 24hr
in
rain mn
in
humidity
%
barometer
mb
20260506023923 79 182 6.0 12.0 0.00 0.00 0.00 92 1008.0
20260506023358 79 156 5.0 12.0 0.00 0.00 0.00 91 1007.9
20260506022853 79 119 5.0 11.0 0.00 0.00 0.00 91 1007.8
20260506022557 79 223 5.0 11.0 0.00 0.00 0.00 91 1007.7
20260506021757 79 143 5.0 10.0 0.00 0.00 0.00 91 1007.6
20260506021254 79 158 4.0 9.0 0.00 0.00 0.00 91 1007.6
20260506020758 79 160 5.0 12.0 0.00 0.00 0.00 91 1007.5
20260506020252 79 166 7.0 14.0 0.00 0.00 0.00 90 1007.5
20260506015728 79 120 5.0 14.0 0.00 0.00 0.00 90 1007.5
20260506015456 80 141 4.0 8.0 0.00 0.00 0.00 90 1007.4
20260506014705 80 159 4.0 10.0 0.00 0.00 0.00 90 1007.3
20260506014206 80 166 3.0 9.0 0.00 0.00 0.00 89 1007.2
20260506013911 80 189 4.0 10.0 0.00 0.00 0.00 89 1007.1
20260506013122 80 198 5.0 10.0 0.00 0.00 0.00 89 1007.0
20260506012621 80 183 5.0 9.0 0.00 0.00 0.00 89 1006.9
20260506011542 80 179 6.0 14.0 0.00 0.00 0.00 88 1006.8
20260506011042 80 183 4.0 12.0 0.00 0.00 0.00 88 1006.8
20260506010525 80 150 4.0 12.0 0.00 0.00 0.00 88 1006.7
20260506010229 80 154 5.0 12.0 0.00 0.00 0.00 87 1006.7
20260506005459 80 172 6.0 12.0 0.00 0.00 0.00 87 1006.7
20260506004934 80 125 6.0 12.0 0.00 0.00 0.00 87 1006.7
20260506004412 81 158 6.0 14.0 0.00 0.00 0.00 86 1006.6
20260506003858 81 120 6.0 14.0 0.00 0.00 0.00 86 1006.5
20260506003353 81 184 5.0 12.0 0.00 0.00 0.00 86 1006.4
20260506002900 81 166 7.0 16.0 0.00 0.00 0.00 85 1006.4
20260506002336 81 176 8.0 16.0 0.00 0.00 0.00 85 1006.4
20260506001834 81 183 7.0 15.0 0.00 0.00 0.00 85 1006.4
20260506001333 81 159 7.0 13.0 0.00 0.00 0.00 85 1006.5
20260506000829 81 158 7.0 12.0 0.00 0.00 0.00 85 1006.5
20260506000302 81 198 7.0 13.0 0.00 0.00 0.00 84 1006.3
20260505235734 81 178 9.0 18.0 0.00 0.00 0.00 84 1006.4
20260505235233 81 166 8.0 18.0 0.00 0.00 0.00 84 1006.4
20260505234727 82 164 6.0 14.0 0.00 0.00 0.00 84 1006.4
20260505234202 82 146 6.0 14.0 0.00 0.00 0.00 84 1006.3
20260505233637 82 133 6.0 12.0 0.00 0.00 0.00 84 1006.4
20260505233107 82 174 6.0 12.0 0.00 0.00 0.00 84 1006.4
20260505232606 82 180 5.0 10.0 0.00 0.00 0.00 84 1006.3
20260505232039 82 185 6.0 14.0 0.00 0.00 0.00 84 1006.4
20260505231742 82 181 6.0 14.0 0.00 0.00 0.00 84 1006.4
20260505231009 82 180 6.0 15.0 0.00 0.00 0.00 84 1006.4
20260505230442 82 166 7.0 15.0 0.00 0.00 0.00 84 1006.5
20260505225940 82 182 7.0 18.0 0.00 0.00 0.00 84 1006.5
20260505225413 82 184 7.0 18.0 0.00 0.00 0.00 84 1006.4
20260505224847 82 213 7.0 15.0 0.00 0.00 0.00 83 1006.4
20260505224615 82 166 7.0 15.0 0.00 0.00 0.00 84 1006.5
20260505223840 82 214 7.0 15.0 0.00 0.00 0.00 84 1006.4
20260505223338 82 162 7.0 16.0 0.00 0.00 0.00 84 1006.4
20260505222811 83 176 6.0 16.0 0.00 0.00 0.00 84 1006.4
20260505222245 83 206 7.0 16.0 0.00 0.00 0.00 84 1006.5
20260505221718 83 150 7.0 16.0 0.00 0.00 0.00 84 1006.5
20260505221214 83 173 7.0 14.0 0.00 0.00 0.00 84 1006.6
20260505220648 83 125 7.0 16.0 0.00 0.00 0.00 83 1006.6
20260505220121 83 192 7.0 16.0 0.00 0.00 0.00 83 1006.6
20260505215553 83 185 7.0 15.0 0.00 0.00 0.00 83 1006.7
20260505215026 83 171 8.0 15.0 0.00 0.00 0.00 83 1006.8
20260505214523 83 160 8.0 15.0 0.00 0.00 0.00 82 1006.8
20260505214000 84 231 7.0 15.0 0.00 0.00 0.00 82 1006.9
20260505213430 84 218 6.0 15.0 0.00 0.00 0.00 82 1006.8
20260505212926 84 177 6.0 11.0 0.00 0.00 0.00 83 1006.8
20260505212405 83 127 5.0 17.0 0.00 0.00 0.00 83 1006.9
20260505212131 83 177 7.0 17.0 0.00 0.00 0.00 84 1006.9
20260505211356 83 231 8.0 19.0 0.00 0.00 0.00 83 1007.0
20260505210830 84 173 8.0 19.0 0.00 0.00 0.00 82 1007.0
20260505210302 84 170 7.0 14.0 0.00 0.00 0.00 83 1007.2
20260505205758 84 196 6.0 15.0 0.00 0.00 0.00 82 1007.2
20260505205253 83 231 6.0 15.0 0.00 0.00 0.00 83 1007.3
20260505204751 83 226 8.0 15.0 0.00 0.00 0.00 83 1007.3
20260505204458 83 175 8.0 15.0 0.00 0.00 0.00 83 1007.2
20260505203722 83 213 7.0 15.0 0.00 0.00 0.00 84 1007.3
20260505203221 83 191 7.0 15.0 0.00 0.00 0.00 84 1007.6
20260505202656 83 200 7.0 15.0 0.00 0.00 0.00 83 1007.6
20260505202130 83 168 7.0 14.0 0.00 0.00 0.00 83 1007.7
20260505201903 84 183 6.0 14.0 0.00 0.00 0.00 82 1007.8
20260505201106 84 196 5.0 15.0 0.00 0.00 0.00 83 1007.9
20260505200607 84 208 6.0 15.0 0.00 0.00 0.00 82 1007.8
20260505200043 83 256 6.0 14.0 0.00 0.00 0.00 82 1007.9
20260505195546 83 210 7.0 14.0 0.00 0.00 0.00 82 1007.9
20260505195020 83 199 7.0 14.0 0.00 0.00 0.00 82 1008.0
20260505194514 83 214 6.0 14.0 0.00 0.00 0.00 82 1008.1
20260505194008 83 195 6.0 17.0 0.00 0.00 0.00 83 1008.1
20260505193459 83 230 7.0 15.0 0.00 0.00 0.00 83 1008.2
20260505193454 83 194 7.0 17.0 0.00 0.00 0.00 83 1008.1
20260505192442 83 170 6.0 15.0 0.00 0.00 0.00 84 1008.3
20260505191947 82 213 6.0 13.0 0.00 0.00 0.00 85 1008.3
20260505191410 82 198 6.0 13.0 0.00 0.00 0.00 85 1008.4
20260505190908 82 198 7.0 11.0 0.00 0.00 0.00 85 1008.4
20260505190350 82 191 7.0 15.0 0.00 0.00 0.00 85 1008.4
20260505185836 82 189 7.0 15.0 0.00 0.00 0.00 85 1008.5
20260505185334 82 200 7.0 14.0 0.00 0.00 0.00 85 1008.5
20260505184814 81 188 6.0 12.0 0.00 0.00 0.00 86 1008.5
20260505184315 81 197 5.0 12.0 0.00 0.00 0.00 85 1008.5
20260505183816 81 166 5.0 14.0 0.00 0.00 0.00 86 1008.6
20260505183315 81 184 6.0 14.0 0.00 0.00 0.00 86 1008.5
20260505182813 81 147 7.0 14.0 0.00 0.00 0.00 85 1008.6
20260505182752 81 204 6.0 14.0 0.00 0.00 0.00 85 1008.6
20260505181724 81 186 6.0 11.0 0.00 0.00 0.00 86 1008.7
20260505181158 81 179 6.0 14.0 0.00 0.00 0.00 86 1008.8
20260505180934 81 197 7.0 14.0 0.00 0.00 0.00 86 1008.8
20260505180157 81 204 5.0 13.0 0.00 0.00 0.00 86 1008.9
20260505175629 81 208 5.0 11.0 0.00 0.00 0.00 87 1008.9
20260505175400 80 189 6.0 12.0 0.00 0.00 0.00 87 1008.9
20260505174606 80 229 7.0 14.0 0.00 0.00 0.00 87 1009.0
20260505174308 80 187 6.0 14.0 0.00 0.00 0.00 87 1009.0
20260505173534 80 212 6.0 13.0 0.00 0.00 0.00 87 1009.1
20260505173030 80 180 7.0 13.0 0.00 0.00 0.00 87 1009.2
20260505172526 80 164 7.0 14.0 0.00 0.00 0.00 87 1009.1
20260505172023 80 184 6.0 14.0 0.00 0.00 0.00 86 1009.0
20260505171520 80 215 5.0 12.0 0.00 0.00 0.00 87 1009.0
20260505170953 80 179 5.0 11.0 0.00 0.00 0.00 87 1009.2
20260505170450 80 208 5.0 11.0 0.00 0.00 0.00 87 1009.2
20260505165923 80 218 5.0 10.0 0.00 0.00 0.00 88 1009.3
20260505165629 80 191 6.0 12.0 0.00 0.00 0.00 88 1009.3
20260505164829 80 190 6.0 12.0 0.00 0.00 0.00 88 1009.3
20260505164327 79 179 6.0 13.0 0.00 0.00 0.00 88 1009.3
20260505163759 79 216 8.0 13.0 0.00 0.00 0.00 88 1009.2
20260505163256 79 205 7.0 12.0 0.00 0.00 0.00 88 1009.3
20260505162730 79 141 5.0 11.0 0.00 0.00 0.00 88 1009.3
20260505162228 79 158 5.0 15.0 0.00 0.00 0.00 88 1009.3
20260505161728 79 198 6.0 12.0 0.00 0.00 0.00 88 1009.1
20260505161724 79 196 5.0 15.0 0.00 0.00 0.00 88 1009.2
20260505160715 79 168 6.0 14.0 0.00 0.00 0.00 88 1009.1
20260505160213 79 189 6.0 15.0 0.00 0.00 0.00 88 1009.1
20260505153044 79 161 5.0 12.0 0.00 0.00 0.00 89 1008.9
20260505152540 78 185 6.0 12.0 0.00 0.00 0.00 89 1008.9
20260505152038 78 189 6.0 12.0 0.00 0.00 0.00 89 1008.9
20260505151534 78 190 7.0 12.0 0.00 0.00 0.00 89 1008.8
20260505151007 78 195 7.0 13.0 0.00 0.00 0.00 89 1008.9
20260505150504 78 228 7.0 13.0 0.00 0.00 0.00 89 1008.9
20260505140648 76 177 7.0 13.0 0.00 0.00 0.00 92 1008.9
20260505140121 76 218 6.0 13.0 0.00 0.00 0.00 92 1009.0
20260505124918 74 177 6.0 14.0 0.00 0.00 0.00 94 1008.5
20260505124418 74 189 5.0 10.0 0.00 0.00 0.00 94 1008.5
20260505123919 74 202 5.0 11.0 0.00 0.00 0.00 94 1008.5
20260505123359 74 133 4.0 11.0 0.00 0.00 0.00 94 1008.5
20260505122838 74 147 5.0 10.0 0.00 0.00 0.00 94 1008.5
20260505122542 74 119 4.0 10.0 0.00 0.00 0.00 94 1008.4
20260505121810 74 204 4.0 9.0 0.00 0.00 0.00 94 1008.3
20260505121307 74 176 5.0 9.0 0.00 0.00 0.00 94 1008.0
20260505120740 74 195 5.0 12.0 0.00 0.00 0.00 94 1008.0
20260505120511 74 196 5.0 12.0 0.00 0.00 0.00 94 1007.9
20260505115723 74 196 5.0 10.0 0.00 0.00 0.00 94 1008.0
20260505115225 74 166 5.0 10.0 0.00 0.00 0.00 94 1008.1
20260505114724 74 131 4.0 9.0 0.00 0.00 0.00 94 1008.4
20260505114426 74 181 4.0 9.0 0.00 0.00 0.00 94 1008.4
20260505113629 74 197 4.0 9.0 0.00 0.00 0.00 94 1008.4
20260505113125 74 195 4.0 10.0 0.00 0.00 0.00 94 1008.2
20260505112559 74 135 5.0 10.0 0.00 0.00 0.00 94 1008.1
20260505112056 74 194 5.0 10.0 0.00 0.00 0.00 94 1008.2
20260505111554 74 175 4.0 10.0 0.00 0.00 0.00 94 1008.1
20260505111258 74 201 4.0 10.0 0.00 0.00 0.00 94 1008.0
20260505110523 74 161 4.0 9.0 0.00 0.00 0.00 94 1008.0
20260505101829 73 137 5.0 11.0 0.00 0.00 0.00 93 1008.1
20260505101326 73 166 4.0 11.0 0.00 0.00 0.00 93 1008.3
20260505100758 73 188 4.0 8.0 0.00 0.00 0.00 93 1008.4
20260505100256 73 191 5.0 10.0 0.00 0.00 0.00 93 1008.4
20260505095728 73 193 4.0 10.0 0.00 0.00 0.00 94 1008.2
20260505095225 73 201 4.0 13.0 0.00 0.00 0.00 93 1008.0
20260505094700 73 175 4.0 13.0 0.00 0.00 0.00 94 1008.1
20260505094132 73 184 4.0 9.0 0.00 0.00 0.00 93 1008.3
20260505093900 73 210 4.0 7.0 0.00 0.00 0.00 93 1008.2
20260505093122 73 161 4.0 10.0 0.00 0.00 0.00 93 1008.2
20260505092554 73 167 4.0 10.0 0.00 0.00 0.00 93 1008.4
20260505092052 73 193 3.0 7.0 0.00 0.00 0.00 93 1008.4
20260505091524 73 156 4.0 9.0 0.00 0.00 0.00 93 1008.4
20260505091253 73 205 4.0 8.0 0.00 0.00 0.00 93 1008.5
20260505090726 73 228 4.0 8.0 0.00 0.00 0.00 93 1008.5
20260505085952 73 198 4.0 10.0 0.00 0.00 0.00 93 1008.6
20260505085424 73 148 5.0 10.0 0.00 0.00 0.00 93 1008.4
20260505084922 72 153 4.0 7.0 0.00 0.00 0.00 93 1008.4
20260505084418 72 199 4.0 7.0 0.00 0.00 0.00 93 1008.5
20260505084148 72 164 3.0 7.0 0.00 0.00 0.00 93 1008.5
20260505083349 72 162 3.0 9.0 0.00 0.00 0.00 93 1008.5
20260505082823 72 184 4.0 9.0 0.00 0.00 0.00 93 1008.6
20260505082321 72 190 4.0 12.0 0.00 0.00 0.00 93 1008.7
20260505081808 72 176 4.0 12.0 0.00 0.00 0.00 92 1008.8
20260505081307 72 177 4.0 10.0 0.00 0.00 0.00 92 1008.8
20260505080808 72 158 4.0 10.0 0.00 0.00 0.00 92 1008.8
20260505080308 72 144 5.0 10.0 0.00 0.00 0.00 92 1008.8
20260505075744 72 193 5.0 10.0 0.00 0.00 0.00 92 1008.8
20260505075246 72 164 5.0 9.0 0.00 0.00 0.00 92 1008.9
20260505074958 72 162 5.0 11.0 0.00 0.00 0.00 92 1008.8
20260505074229 72 160 5.0 11.0 0.00 0.00 0.00 92 1008.9
20260505073720 72 188 5.0 12.0 0.00 0.00 0.00 92 1008.9
20260505073450 72 196 5.0 12.0 0.00 0.00 0.00 91 1009.0
20260505072934 72 179 5.0 9.0 0.00 0.00 0.00 91 1009.0
20260505072159 72 171 4.0 12.0 0.00 0.00 0.00 91 1009.1
20260505071658 72 195 4.0 12.0 0.00 0.00 0.00 91 1009.1
20260505071432 72 204 4.0 9.0 0.00 0.00 0.00 91 1009.1
20260505070642 72 149 4.0 11.0 0.00 0.00 0.00 91 1009.2
20260505070144 72 185 5.0 11.0 0.00 0.00 0.00 91 1009.2
20260505065858 72 166 6.0 10.0 0.00 0.00 0.00 90 1009.2
20260505065126 72 191 6.0 10.0 0.00 0.00 0.00 90 1009.3
20260505064856 72 193 5.0 11.0 0.00 0.00 0.00 90 1009.4
20260505064103 72 176 5.0 11.0 0.00 0.00 0.00 90 1009.5
20260505063548 72 165 5.0 10.0 0.00 0.00 0.00 90 1009.6
20260505063041 72 197 5.0 10.0 0.00 0.00 0.00 90 1009.8
20260505062521 72 171 5.0 12.0 0.00 0.00 0.00 89 1009.7
20260505062224 72 191 5.0 12.0 0.00 0.00 0.00 89 1009.9
20260505061430 72 181 5.0 12.0 0.00 0.00 0.00 89 1010.0
20260505060933 72 202 5.0 12.0 0.00 0.00 0.00 89 1010.0
20260505060401 72 228 5.0 11.0 0.00 0.00 0.00 89 1009.9
20260505055859 72 192 5.0 11.0 0.00 0.00 0.00 89 1010.0
20260505055356 72 183 5.0 12.0 0.00 0.00 0.00 88 1009.9
20260505055059 72 165 5.0 12.0 0.00 0.00 0.00 88 1009.9
20260505054311 72 181 5.0 10.0 0.00 0.00 0.00 88 1010.1
20260505054007 72 176 4.0 9.0 0.00 0.00 0.00 88 1010.1
20260505053209 72 122 4.0 7.0 0.00 0.00 0.00 88 1010.2
20260505052706 72 179 4.0 8.0 0.00 0.00 0.00 88 1010.3
20260505052154 72 206 4.0 10.0 0.00 0.00 0.00 88 1010.3
20260505051627 72 147 4.0 10.0 0.00 0.00 0.00 87 1010.2
20260505051126 72 187 5.0 11.0 0.00 0.00 0.00 88 1010.2
20260505050832 72 201 3.0 11.0 0.00 0.00 0.00 87 1010.2
20260505041340 73 161 4.0 8.0 0.00 0.00 0.00 85 1010.4
20260505040821 73 177 4.0 8.0 0.00 0.00 0.00 85 1010.6
20260505040321 73 152 4.0 8.0 0.00 0.00 0.00 85 1010.7
20260505035818 73 179 5.0 11.0 0.00 0.00 0.00 85 1010.6
20260505035314 73 171 5.0 11.0 0.00 0.00 0.00 84 1010.6
20260505034801 74 154 4.0 8.0 0.00 0.00 0.00 84 1010.8
20260505034241 74 158 5.0 10.0 0.00 0.00 0.00 84 1010.8
20260505033951 74 162 5.0 12.0 0.00 0.00 0.00 84 1010.8
20260505033156 74 179 5.0 14.0 0.00 0.00 0.00 84 1010.8
20260505032637 74 192 6.0 14.0 0.00 0.00 0.00 83 1010.7
20260505032112 74 177 6.0 13.0 0.00 0.00 0.00 83 1010.6
20260505031634 74 167 6.0 13.0 0.00 0.00 0.00 83 1010.6
20260505030525 74 169 7.0 15.0 0.00 0.00 0.00 82 1010.7
20260505030000 74 194 6.0 15.0 0.00 0.00 0.00 82 1010.7
20260505025438 74 154 5.0 12.0 0.00 0.00 0.00 82 1010.7
20260505025203 74 152 5.0 12.0 0.00 0.00 0.00 82 1010.8